Regional Weather Roundup
Issued by NWS

Home | Current Version | Previous Version | Graphics & Text | Print | Product List | Glossary On
Versions: 1 2 3 4 5 6 7 8 9 10 11 12 13 14 15 16 17 18 19 20 21 22 23 24 25 26 27 28 29 30 31 32 33 34 35 36 37 38 39 40 41 42 43 44 45 46 47 48 49 50
000
ASUS45 KCYS 300310
RWRWY

WYOMING REGIONAL WEATHER ROUNDUP
NATIONAL WEATHER SERVICE CHEYENNE WY
900 PM MDT WED JUL 29 2015

NOTE:  "FAIR" INDICATES FEW OR NO CLOUDS BELOW 12,000 FEET
WITH NO SIGNIFICANT WEATHER AND/OR OBSTRUCTIONS TO VISIBILITY.

WYZ001-300400-
YELLOWSTONE NATIONAL PARK

CITY           SKY/WX    TMP DP  RH WIND       PRES   REMARKS
LK YELLOWSTONE   N/A     53  36  52 NW3       30.48R
W YELLOWSTONE  NOT AVBL

$$
WYZ002>013-054>058-071-098>099-300400-
NORTHERN WYOMING

CITY           SKY/WX    TMP DP  RH WIND       PRES   REMARKS
JACKSON        FAIR      61  39  44 W7        30.37S
CODY           FAIR      68  30  24 CALM      30.27R
GREYBULL       FAIR      76  32  20 CALM      30.18R
WORLAND        FAIR      68  31  25 E7        30.19R
SHERIDAN       FAIR      66  42  41 NW8       30.21R
BUFFALO        FAIR      63  40  42 W7        30.27R
GILLETTE       FAIR      60  39  45 W3        30.22R
HULETT         FAIR      66  37  34 NE5       30.24R
NEWCASTLE      FAIR      66  36  32 E7        30.23R

$$
WYZ014>020-022>026-101>103-300400-
CENTRAL WYOMING

CITY           SKY/WX    TMP DP  RH WIND       PRES   REMARKS
BIG PINEY      FAIR      64  24  21 N12       30.40R
PINEDALE       FAIR      59  32  36 NW3       30.42R
DUBOIS         FAIR      61  28  29 NW10      30.39S
LANDER         FAIR      70  30  22 SW7       30.25R
RIVERTON       FAIR      71  25  17 N6        30.26R
CASPER         FAIR      61  24  24 NE8       30.26R
DOUGLAS        FAIR      67  29  24 SE3       30.26R

$$
WYZ021-027>030-104>119-300400-
SOUTHERN WYOMING

CITY           SKY/WX    TMP DP  RH WIND       PRES   REMARKS
EVANSTON       FAIR      65  19  17 W13       30.41R
KEMMERER       FAIR      63  27  25 NW8       30.42R
FORT BRIDGER   CLEAR     68  14  12 W9        30.42R
ROCK SPRINGS   FAIR      70   8   9 W5        30.36S
DIXON          FAIR      63  20  19 NE9       30.37R
RAWLINS        FAIR      61  15  16 NW6       30.37R
SARATOGA       FAIR      63  21  20 SW3       30.39R
LARAMIE        FAIR      62  29  28 NE7       30.39R
CHEYENNE       FAIR      69  49  48 SE9       30.32R
TORRINGTON     FAIR      72  49  44 E9        30.20R
PINE BLUFFS    FAIR      70  46  43 SE9       30.28S

$$



USA.gov is the U.S. government's official web portal to all federal, state and local government web resources and services.